Darstellungsparameter: Aktuell verwendete Einstellungen:
Skalierung der Graphiken ... ?
xyx+y,   Skalierungsfaktor:      Skalierung: Modus: x, Faktor: 1
Darstellungszeitraum ... ?
Vom - - bis: - -   Zeitraum: 15.05.2010 - 15.05.2010
Min/Max/Avg-Anzeige ... ?
Zeige MMA aktuell
Zeige MMA Monat
Zeige MMA alles
Zeige --A aktuell
Zeige --A Monat
Zeige --A alles
Keine MMA-Anzeige
MMA:
Average (ber die Originaldaten)
MMA-Basis: 15.05.2010 - 15.05.2010
Quicknavigation für Darstellung... ?
Tage:      1T, 2T, 3T, 5T -1T -2T -3T -5T +1T +2T +3T +5T
Wochen: 1W, 2W, 3W -1W -2W -3W +1W +2W +3W
Monate: 1M, 3M, 6M -1M -3M -6M +1M +3M +6M
Jahre:    1J, 3J, 5J, 10J -1J -3J -5J -10J +1J +3J +5J +10J
Nutze für die Darstellung ... ?
Originaldaten oder Mittelwerte auf ...
Stundenbasis Tagesbasis Wochenbasis
Monatsbasis Jahresbasis      Datenbasis: Original-Daten
Darstellen als:
Statistik (Auto) Statistik J:M      Darstellung:
Zur Graphik,    zurück zur Übersicht aller Sensoren.
 
Tabellarische Datenbersicht: ?
 
Sensor: Nr:Datum:Temp:Abs-Feuchte:Windchill:Wind:
Aussen-T/F 1 15-05-2010 00:07:03 8 C 7.19 g/m*3 8 C 0 km/h
2 15-05-2010 00:19:03 8 C 7.19 g/m*3 8 C 0 km/h
3 15-05-2010 00:31:04 7.9 C 7.23 g/m*3 7.9 C 0 km/h
4 15-05-2010 00:43:04 7.8 C 7.18 g/m*3 7.8 C 0 km/h
5 15-05-2010 00:55:04 7.8 C 7.18 g/m*3 7.8 C 0 km/h
6 15-05-2010 01:07:04 7.9 C 7.23 g/m*3 7.9 C 0 km/h
7 15-05-2010 01:19:04 7.8 C 7.18 g/m*3 7.8 C 0 km/h
8 15-05-2010 01:31:04 7.6 C 7.09 g/m*3 7.6 C 0 km/h
9 15-05-2010 01:43:04 7.6 C 7.09 g/m*3 7.6 C 0 km/h
10 15-05-2010 01:55:04 7.6 C 7.09 g/m*3 7.6 C 0 km/h
11 15-05-2010 02:07:04 7.5 C 7.04 g/m*3 7.5 C 0 km/h
12 15-05-2010 02:19:04 7.5 C 7.12 g/m*3 7.5 C 0 km/h
13 15-05-2010 02:31:04 7.6 C 7.17 g/m*3 7.6 C 0 km/h
14 15-05-2010 02:43:04 7.8 C 7.26 g/m*3 7.8 C 0 km/h
15 15-05-2010 02:55:04 7.8 C 7.26 g/m*3 7.8 C 0 km/h
16 15-05-2010 03:07:04 7.6 C 7.17 g/m*3 7.6 C 0 km/h
17 15-05-2010 03:19:04 7.6 C 7.17 g/m*3 7.6 C 0 km/h
18 15-05-2010 03:31:04 7.6 C 7.25 g/m*3 7.6 C 0 km/h
19 15-05-2010 03:43:04 7.6 C 7.25 g/m*3 7.6 C 0 km/h
20 15-05-2010 03:55:04 7.6 C 7.25 g/m*3 7.6 C 0 km/h
21 15-05-2010 04:07:04 7.6 C 7.25 g/m*3 7.6 C 0 km/h
22 15-05-2010 04:19:04 7.7 C 7.3 g/m*3 7.7 C 0 km/h
23 15-05-2010 04:31:04 7.6 C 7.25 g/m*3 7.6 C 0 km/h
24 15-05-2010 04:43:05 7.6 C 7.25 g/m*3 7.6 C 0 km/h
25 15-05-2010 04:55:05 7.5 C 7.2 g/m*3 7.5 C 0 km/h
Sensor: Nr:Datum:Temp:Abs-Feuchte:Windchill:Wind:
Aussen-T/F 26 15-05-2010 05:07:05 7.4 C 7.24 g/m*3 7.4 C 0 km/h
27 15-05-2010 05:19:05 7.3 C 7.19 g/m*3 7.3 C 0 km/h
28 15-05-2010 05:31:05 7.3 C 7.19 g/m*3 7.3 C 0 km/h
29 15-05-2010 05:43:05 7.2 C 7.14 g/m*3 7.2 C 0 km/h
30 15-05-2010 05:55:05 7.1 C 7.1 g/m*3 7.1 C 0 km/h
31 15-05-2010 06:07:05 7.1 C 7.1 g/m*3 7.1 C 0 km/h
32 15-05-2010 06:19:05 7.1 C 7.1 g/m*3 7.1 C 0 km/h
33 15-05-2010 06:31:05 7.1 C 7.18 g/m*3 7.1 C 0 km/h
34 15-05-2010 06:43:05 7.1 C 7.18 g/m*3 7.1 C 0 km/h
35 15-05-2010 06:55:05 7.1 C 7.18 g/m*3 7.1 C 0 km/h
36 15-05-2010 07:07:05 7.1 C 7.18 g/m*3 7.1 C 0 km/h
37 15-05-2010 07:19:05 7.4 C 7.32 g/m*3 7.4 C 0 km/h
38 15-05-2010 07:31:05 7.5 C 7.36 g/m*3 7.5 C 0 km/h
39 15-05-2010 07:43:05 7.8 C 7.51 g/m*3 7.8 C 0 km/h
40 15-05-2010 07:55:02 8.2 C 7.62 g/m*3 8.2 C 0 km/h
41 15-05-2010 08:07:02 8.3 C 7.59 g/m*3 8.3 C 0 km/h
42 15-05-2010 08:19:02 8.2 C 7.29 g/m*3 8.2 C 0 km/h
43 15-05-2010 08:31:03 8.6 C 7.39 g/m*3 8.6 C 0 km/h
44 15-05-2010 08:43:03 8.5 C 7 g/m*3 8.5 C 0 km/h
45 15-05-2010 08:55:02 8.8 C 7.05 g/m*3 8.8 C 0 km/h
46 15-05-2010 09:07:02 9 C 6.88 g/m*3 9 C 0 km/h
47 15-05-2010 09:19:02 9.3 C 6.92 g/m*3 9.3 C 0 km/h
48 15-05-2010 09:31:02 9.5 C 6.83 g/m*3 9.5 C 0 km/h
49 15-05-2010 09:43:02 9.6 C 6.78 g/m*3 9.6 C 0 km/h
50 15-05-2010 09:55:01 10 C 6.67 g/m*3 10 C 0 km/h
Sensor: Nr:Datum:Temp:Abs-Feuchte:Windchill:Wind:
Aussen-T/F 51 15-05-2010 10:07:02 10.5 C 6.6 g/m*3 10.5 C 0 km/h
52 15-05-2010 10:19:01 10.7 C 6.48 g/m*3 10.7 C 0 km/h
53 15-05-2010 10:31:02 10.6 C 6.34 g/m*3 10.6 C 0 km/h
54 15-05-2010 10:43:02 11.1 C 6.35 g/m*3 11.1 C 0 km/h
55 15-05-2010 10:55:02 11.1 C 6.35 g/m*3 11.1 C 0 km/h
56 15-05-2010 11:07:02 10.9 C 6.27 g/m*3 10.9 C 0 km/h
57 15-05-2010 11:19:01 10.8 C 6.23 g/m*3 10.8 C 0 km/h
58 15-05-2010 11:31:02 10.9 C 6.17 g/m*3 10.9 C 0 km/h
59 15-05-2010 11:43:02 11.5 C 5.89 g/m*3 11.5 C 0 km/h
60 15-05-2010 11:55:02 11.9 C 6.04 g/m*3 11.9 C 0 km/h
61 15-05-2010 12:07:02 11.2 C 5.68 g/m*3 11.2 C 0 km/h
62 15-05-2010 12:19:02 11.1 C 5.64 g/m*3 11.1 C 0 km/h
63 15-05-2010 12:31:02 11.2 C 5.57 g/m*3 11.2 C 0 km/h
64 15-05-2010 12:43:02 12.4 C 5.46 g/m*3 12.4 C 0 km/h
65 15-05-2010 12:55:02 12.3 C 4.78 g/m*3 12.3 C 0 km/h
66 15-05-2010 13:07:02 13.9 C 5.04 g/m*3 13.9 C 0 km/h
67 15-05-2010 13:19:03 12 C 4.58 g/m*3 12 C 0 km/h
68 15-05-2010 13:31:02 11.1 C 5.14 g/m*3 11.1 C 0 km/h
69 15-05-2010 13:43:02 11.2 C 4.87 g/m*3 11.2 C 0 km/h
70 15-05-2010 13:55:02 12.1 C 4.5 g/m*3 12.1 C 0 km/h
71 15-05-2010 14:07:02 13.7 C 4.5 g/m*3 13.7 C 0 km/h
72 15-05-2010 14:19:02 15 C 4.62 g/m*3 15 C 0 km/h
73 15-05-2010 14:31:02 14.7 C 4.15 g/m*3 14.7 C 0 km/h
74 15-05-2010 14:43:02 14 C 3.98 g/m*3 14 C 0 km/h
75 15-05-2010 14:55:01 13.9 C 3.72 g/m*3 13.9 C 0 km/h
Sensor: Nr:Datum:Temp:Abs-Feuchte:Windchill:Wind:
Aussen-T/F 76 15-05-2010 15:07:01 14.3 C 3.56 g/m*3 14.3 C 0 km/h
77 15-05-2010 15:19:01 15.2 C 3.24 g/m*3 15.2 C 0 km/h
78 15-05-2010 15:31:01 15.8 C 2.69 g/m*3 15.8 C 0 km/h
79 15-05-2010 15:43:01 16 C 2.72 g/m*3 16 C 0 km/h
80 15-05-2010 15:55:01 16.2 C 2.76 g/m*3 16.2 C 0 km/h
81 15-05-2010 16:07:02 16.2 C 2.76 g/m*3 16.2 C 0 km/h
82 15-05-2010 16:19:01 15.1 C 2.58 g/m*3 15.1 C 0 km/h
83 15-05-2010 16:31:01 14.4 C 2.47 g/m*3 14.4 C 0 km/h
84 15-05-2010 16:43:01 14.4 C 2.97 g/m*3 14.4 C 0 km/h
85 15-05-2010 16:55:01 13.8 C 2.98 g/m*3 13.8 C 0 km/h
86 15-05-2010 17:07:02 13.9 C 3.12 g/m*3 13.9 C 0 km/h
87 15-05-2010 17:19:01 14 C 3.02 g/m*3 14 C 0 km/h
88 15-05-2010 17:31:02 14.1 C 3.16 g/m*3 14.1 C 0 km/h
89 15-05-2010 17:43:02 14 C 3.26 g/m*3 14 C 0 km/h
90 15-05-2010 17:55:02 14 C 3.26 g/m*3 14 C 0 km/h
91 15-05-2010 18:07:02 13.7 C 3.43 g/m*3 13.7 C 0 km/h
92 15-05-2010 18:19:01 14 C 3.62 g/m*3 14 C 0 km/h
93 15-05-2010 18:31:02 13.8 C 3.46 g/m*3 13.8 C 0 km/h
94 15-05-2010 18:43:02 13.7 C 3.43 g/m*3 13.7 C 0 km/h
95 15-05-2010 18:55:02 13.9 C 3.36 g/m*3 13.9 C 0 km/h
96 15-05-2010 19:07:02 13.9 C 3.24 g/m*3 13.9 C 0 km/h
97 15-05-2010 19:19:02 14.6 C 3.5 g/m*3 14.6 C 0 km/h
98 15-05-2010 19:31:02 15.1 C 3.23 g/m*3 15.1 C 0 km/h
99 15-05-2010 19:43:02 14.9 C 3.44 g/m*3 14.9 C 0 km/h
100 15-05-2010 19:55:02 14.4 C 3.58 g/m*3 14.4 C 0 km/h
Sensor: Nr:Datum:Temp:Abs-Feuchte:Windchill:Wind:
Aussen-T/F 101 15-05-2010 20:07:02 13.9 C 4.2 g/m*3 13.9 C 0 km/h
102 15-05-2010 20:19:02 13.3 C 4.62 g/m*3 13.3 C 0 km/h
103 15-05-2010 20:31:02 12.4 C 4.48 g/m*3 12.4 C 0 km/h
104 15-05-2010 20:43:02 11.6 C 4.47 g/m*3 11.6 C 0 km/h
105 15-05-2010 20:55:02 11.3 C 4.59 g/m*3 11.3 C 0 km/h
106 15-05-2010 21:07:02 11.4 C 4.62 g/m*3 11.4 C 0 km/h
107 15-05-2010 21:19:02 11.1 C 4.53 g/m*3 11.1 C 0 km/h
108 15-05-2010 21:31:02 10.8 C 4.55 g/m*3 10.8 C 0 km/h
109 15-05-2010 21:43:02 10.8 C 4.84 g/m*3 10.8 C 0 km/h
110 15-05-2010 21:55:01 10.8 C 4.84 g/m*3 10.8 C 0 km/h
111 15-05-2010 22:07:02 10.8 C 4.94 g/m*3 10.8 C 0 km/h
112 15-05-2010 22:19:02 11 C 5 g/m*3 11 C 0 km/h
113 15-05-2010 22:32:02 11.1 C 4.83 g/m*3 11.1 C 0 km/h
114 15-05-2010 22:44:03 11.2 C 4.66 g/m*3 11.2 C 0 km/h
115 15-05-2010 22:56:03 11.2 C 4.66 g/m*3 11.2 C 0 km/h
116 15-05-2010 23:08:03 11.1 C 4.73 g/m*3 11.1 C 0 km/h
117 15-05-2010 23:20:03 10.9 C 4.97 g/m*3 10.9 C 0 km/h
118 15-05-2010 23:32:03 10.9 C 5.07 g/m*3 10.9 C 0 km/h
119 15-05-2010 23:44:03 10.8 C 5.04 g/m*3 10.8 C 0 km/h
120 15-05-2010 23:56:03 10.5 C 5.04 g/m*3 10.5 C 0 km/h

Legende:
   Min
   Max


Maximal/Minimal-Werte vom 15.05.2010 - 15.05.2010

Sensor Min Max Avg
Temp
(Aussen-T/F)
7.1 °C
15-05-2010  05:55:05
16.2 °C
15-05-2010  15:55:01
10.68 °C
Abs-Feuchte
(Aussen-T/F)
2.47 g/m*3
15-05-2010  16:31:01
7.62 g/m*3
15-05-2010  07:55:02
5.51 g/m*3
Windchill
(Aussen-T/F)
7.1 C
15-05-2010  05:55:05
16.2 C
15-05-2010  15:55:01
10.59 C

Die Daten stammen von einer Davis Vantage Pro 2 Wetter-Station und werden unter Linux mit der Software wview2wettercgi und aufbereitet. Alle Angaben erfolgen ohne Gewähr für ihre Vollständigkeit oder Richtigkeit.
Kontakt: Rainer Krienke krienke@uni-koblenz.de . Meine Webseiten an der Uni Koblenz oder privat.
Version: $Revision: 0.78 $